Burnet, TX

4:03 AM CDT on September 24, 2017 (GMT -0500)
Burnet Municipal-Craddock

Weather History for KBMQ - October, 2011

Change the Weather History Date:

Friday, October 14, 2011

  Actual Average Record
Temperature  
Mean Temperature 72 °F -  
Max Temperature 87 °F 75 °F 93 °F (2015)
Min Temperature 57 °F 55 °F 44 °F (2001)
Cooling Degree Days 7    
Growing Degree Days 22 (Base 50)    
Moisture  
Dew Point 43 °F    
Average Humidity 39    
Maximum Humidity 62    
Minimum Humidity 19    
Precipitation  
Precipitation 0.00 in - - ()
Sea Level Pressure  
Sea Level Pressure 29.96 in    
Wind  
Wind Speed 3 mph (SE)    
Max Wind Speed 8 mph    
Max Gust Speed -    
Visibility 10 miles    
Events      
Averages and records for this station are not official NWS values.
T = Trace of Precipitation, MM = Missing Value Source: NWS Daily Summary

Daily Weather History Graph

Daily Weather History Graph

Search for Another Location

Airport or City:

Trip Planner

Search our weather history database for the weather conditions in past years. The results will help you decide how hot, cold, wet, or windy it might be!

Date:

Astronomy

Oct. 14, 2011 Rise Set
Actual Time 7:34 AM CDT 7:02 PM CDT
Civil Twilight 7:10 AM CDT 7:27 PM CDT
Nautical Twilight 6:42 AM CDT 7:55 PM CDT
Astronomical Twilight 6:14 AM CDT 8:23 PM CDT
Moon 8:32 PM CDT (10/14) 9:50 AM CDT (10/14)
Length of Visible Light 12h 16m
Length of Day
11h 28m
Waning Gibbous, 94% of the Moon is Illuminated
Oct 14
Waning Gibbous
Oct 19
Last Quarter
Oct 26
New
Nov 2
First Quarter
Nov 10
Full

Hourly Weather History & Observations

Time (CDT) Temp. Dew Point Humidity Pressure Visibility Wind Dir Wind Speed Gust Speed Precip Events Conditions
12:53 AM 59.0 °F 46.0 °F 62% 29.94 in 10.0 mi North 3.5 mph - N/A   Clear
1:53 AM 60.1 °F 44.1 °F 55% 29.94 in 10.0 mi NNE 5.8 mph - N/A   Clear
2:53 AM 64.0 °F 39.9 °F 41% 29.95 in 10.0 mi Calm Calm - N/A   Clear
3:53 AM 57.9 °F 45.0 °F 62% 29.95 in 10.0 mi Calm Calm - N/A   Clear
4:53 AM 57.9 °F 44.1 °F 60% 29.95 in 10.0 mi NNE 5.8 mph - N/A   Clear
5:53 AM 57.0 °F 44.1 °F 62% 29.96 in 10.0 mi Calm Calm - N/A   Clear
6:53 AM 57.0 °F 44.1 °F 62% 29.97 in 10.0 mi Calm Calm - N/A   Clear
8:53 AM 63.0 °F 43.0 °F 48% 30.00 in 10.0 mi Calm Calm - N/A   Clear
9:53 AM 68.0 °F 43.0 °F 40% 30.02 in 10.0 mi SSE 5.8 mph - N/A   Clear
10:53 AM 73.9 °F 41.0 °F 30% 30.03 in 10.0 mi SSE 8.1 mph - N/A   Clear
11:53 AM 77.0 °F 42.1 °F 29% 30.02 in 10.0 mi SSE 6.9 mph - N/A   Clear
12:53 PM 80.1 °F 42.1 °F 26% 29.99 in 10.0 mi South 5.8 mph - N/A   Clear
1:53 PM 82.9 °F 39.9 °F 22% 29.96 in 10.0 mi SE 6.9 mph - N/A   Clear
2:53 PM 84.9 °F 39.9 °F 20% 29.94 in 10.0 mi South 8.1 mph - N/A   Clear
3:53 PM 86.0 °F 39.9 °F 20% 29.91 in 10.0 mi SSE 6.9 mph - N/A   Clear
4:53 PM 87.1 °F 39.9 °F 19% 29.91 in 10.0 mi SE 6.9 mph - N/A   Clear
5:53 PM 86.0 °F 39.9 °F 20% 29.91 in 10.0 mi SE 4.6 mph - N/A   Clear
6:53 PM 82.0 °F 42.1 °F 24% 29.91 in 10.0 mi SE 3.5 mph - N/A   Clear
7:53 PM 77.0 °F 43.0 °F 30% 29.93 in 10.0 mi Calm Calm - N/A   Clear
8:53 PM 73.9 °F 45.0 °F 35% 29.95 in 10.0 mi Calm Calm - N/A   Clear
9:53 PM 72.0 °F 45.0 °F 38% 29.96 in 10.0 mi Calm Calm - N/A   Clear
10:53 PM 66.9 °F 46.9 °F 49% 29.97 in 10.0 mi Calm Calm - N/A   Clear
11:53 PM 64.0 °F 46.9 °F 54% 29.98 in 10.0 mi Calm Calm - N/A   Clear